Weather History for KASH - March, 2012

Change the Weather History Date:

Saturday, March 31, 2012

  Actual Average Record
Temperature  
Mean Temperature 40 °F -  
Max Temperature 46 °F 49 °F 89 °F (1998)
Min Temperature 32 °F 29 °F 13 °F (1950)
Degree Days  
Heating Degree Days 25    
Moisture  
Dew Point 25 °F    
Average Humidity 56    
Maximum Humidity 89    
Minimum Humidity 42    
Precipitation  
Precipitation 0.00 in - - ()
Sea Level Pressure  
Sea Level Pressure 29.98 in    
Wind  
Wind Speed 3 mph (NE)    
Max Wind Speed 8 mph    
Max Gust Speed -    
Visibility 10 miles    
Events      
Averages and records for this station are not official NWS values.
T = Trace of Precipitation, MM = Missing Value Source: NWS Daily Summary

Daily Weather History Graph

Daily Weather History Graph

Search for Another Location

Airport or City:

Trip Planner

Search our weather history database for the weather conditions in past years. The results will help you decide how hot, cold, wet, or windy it might be!

Date:

Astronomy

Mar. 31, 2012 Rise Set
Actual Time 6:29 AM EDT 7:11 PM EDT
Civil Twilight 6:00 AM EDT 7:40 PM EDT
Nautical Twilight 5:26 AM EDT 8:14 PM EDT
Astronomical Twilight 4:51 AM EDT 8:49 PM EDT
Moon 12:27 PM EDT (3/31) 2:32 AM EDT (3/31)
Length of Visible Light 13h 39m
Length of Day
12h 42m
First Quarter, 59% of the Moon is Illuminated
Mar 31
First Quarter
Apr 6
Full
Apr 13
Last Quarter
Apr 21
New
Apr 29
First Quarter

Hourly Weather History & Observations

Time (EDT) Temp. Windchill Dew Point Humidity Pressure Visibility Wind Dir Wind Speed Gust Speed Precip Events Conditions
12:51 AM 39.9 °F - 18.1 °F 42% 30.07 in 10.0 mi Calm Calm - N/A   Clear
1:51 AM 38.8 °F - 20.1 °F 47% 30.06 in 10.0 mi Calm Calm - N/A   Mostly Cloudy
2:51 AM 38.8 °F - 19.0 °F 45% 30.05 in 10.0 mi Calm Calm - N/A   Overcast
3:51 AM 38.8 °F - 20.1 °F 47% 30.03 in 10.0 mi Calm Calm - N/A   Partly Cloudy
4:51 AM 38.8 °F 34.6 °F 21.0 °F 49% 30.03 in 10.0 mi ENE 5.8 mph - N/A   Clear
5:51 AM 37.9 °F 33.5 °F 23.0 °F 55% 30.01 in 10.0 mi NE 5.8 mph - N/A   Mostly Cloudy
6:51 AM 36.9 °F 34.3 °F 23.0 °F 57% 30.01 in 10.0 mi Variable 3.5 mph - N/A   Mostly Cloudy
7:51 AM 36.9 °F 32.2 °F 23.0 °F 57% 30.01 in 10.0 mi ENE 5.8 mph - N/A   Mostly Cloudy
8:51 AM 37.9 °F 33.5 °F 22.1 °F 53% 30.03 in 10.0 mi NE 5.8 mph - N/A   Overcast
9:51 AM 37.9 °F 32.7 °F 23.0 °F 55% 30.03 in 10.0 mi ENE 6.9 mph - 0.00 in   Partly Cloudy
10:51 AM 38.8 °F 33.8 °F 24.1 °F 55% 30.02 in 10.0 mi East 6.9 mph - N/A   Overcast
11:51 AM 39.9 °F 34.5 °F 24.1 °F 53% 30.01 in 10.0 mi North 8.1 mph - N/A   Overcast
12:51 PM 41.9 °F 39.0 °F 25.2 °F 52% 29.98 in 10.0 mi Variable 4.6 mph - N/A   Overcast
1:51 PM 43.9 °F 39.3 °F 25.2 °F 48% 29.95 in 10.0 mi North 8.1 mph - N/A   Mostly Cloudy
2:51 PM 45.9 °F - 26.1 °F 46% 29.93 in 10.0 mi Calm Calm - N/A   Mostly Cloudy
3:51 PM 45.9 °F 44.6 °F 26.1 °F 46% 29.91 in 10.0 mi NW 3.5 mph - N/A   Overcast
5:51 PM 46.9 °F - 27.1 °F 46% 29.90 in 10.0 mi North 4.6 mph - N/A   Overcast
6:51 PM 45.9 °F - 27.1 °F 48% 29.90 in 10.0 mi Calm Calm - N/A   Mostly Cloudy
7:51 PM 41.0 °F - 30.0 °F 65% 29.91 in 10.0 mi Calm Calm - N/A   Clear
8:51 PM 39.9 °F 37.8 °F 30.0 °F 68% 29.92 in 10.0 mi Variable 3.5 mph - N/A   Clear
9:51 PM 37.9 °F - 31.1 °F 76% 29.92 in 10.0 mi Calm Calm - N/A   Clear
10:51 PM 34.9 °F - 30.0 °F 82% 29.91 in 10.0 mi Calm Calm - N/A   Clear
11:51 PM 32.9 °F - 30.0 °F 89% 29.91 in 10.0 mi Calm Calm - N/A   Clear